Back to catalog

YAOGAN 14

AliveMilitarySSO
NORAD 38257·PAYLOAD·🇨🇳 China

Launched May 10, 2012 from Taiyuan Satellite Launch Center

Loading…

Next Passes (next 24 hours)

TLE

FreshSource: Space-Track

Epoch: Sep 14, 2026, 14:14 UTC

1 38257U 12021A   26257.59325095  .00005080  00000-0  18396-3 0  9994
2 38257  97.3156  33.1945 0003945 211.0366 149.0642 15.28827242799476

Track YAOGAN 14 in real time with AllMySat

Download on the App Store